SQ5DCP-1 Weather Reports


time (UTC)temp
C
wind
direction
speed
KPH
gust
KPH
rain 1hr
cm
rain 24hr
cm
rain mn
cm
humidity
%
barometer
mb
20260510153022 19 282 4.8 12.9 0.00 0.00 0.00 38 1013.4
20260510152520 19 270 1.6 6.4 0.00 0.00 0.00 38 1013.5
20260510152019 19 299 4.8 11.3 0.00 0.00 0.00 37 1013.5
20260510151516 19 265 4.8 12.9 0.00 0.00 0.00 38 1013.6
20260510151035 19 77 0.0 3.2 0.00 0.00 0.00 36 1013.6
20260510150533 19 294 1.6 4.8 0.00 0.00 0.00 37 1013.6
20260510150031 19 290 4.8 11.3 0.00 0.00 0.00 37 1013.7
20260510145529 19 275 3.2 6.4 0.00 0.00 0.00 37 1013.8
20260510145029 19 289 6.4 12.9 0.00 0.00 0.00 36 1013.9
20260510144525 19 283 8.0 16.1 0.00 0.00 0.00 37 1014.0
20260510144049 19 305 3.2 11.3 0.00 0.00 0.00 37 1014.0
20260510144024 19 305 3.2 11.3 0.00 0.00 0.00 37 1014.0
20260510143522 19 298 6.4 14.5 0.00 0.00 0.00 38 1014.0
20260510143020 19 293 3.2 11.3 0.00 0.00 0.00 40 1014.1
20260510142517 18 266 3.2 9.7 0.00 0.00 0.00 39 1014.1
20260510142049 19 212 1.6 4.8 0.00 0.00 0.00 38 1014.3
20260510142016 19 212 1.6 4.8 0.00 0.00 0.00 38 1014.3
20260510141535 19 52 1.6 3.2 0.00 0.00 0.00 36 1014.2
20260510141033 19 333 3.2 12.9 0.00 0.00 0.00 37 1014.3
20260510140530 19 295 8.0 16.1 0.00 0.00 0.00 37 1014.3
20260510140028 19 272 6.4 14.5 0.00 0.00 0.00 37 1014.4
20260510135526 19 279 6.4 16.1 0.00 0.00 0.00 39 1014.5
20260510135024 19 278 4.8 14.5 0.00 0.00 0.00 38 1014.6
20260510134522 19 339 3.2 11.3 0.00 0.00 0.00 37 1014.5
20260510134021 19 293 6.4 14.5 0.00 0.00 0.00 39 1014.7
20260510133518 18 295 8.0 14.5 0.00 0.00 0.00 39 1014.7
20260510133017 18 287 4.8 22.5 0.00 0.00 0.00 41 1014.8
20260510132535 18 115 1.6 4.8 0.00 0.00 0.00 39 1014.8
20260510132033 18 336 6.4 17.7 0.00 0.00 0.00 39 1014.9
20260510131531 18 292 8.0 16.1 0.00 0.00 0.00 41 1014.9
20260510131029 18 280 1.6 9.7 0.00 0.00 0.00 41 1014.9
20260510130527 18 291 9.7 16.1 0.00 0.00 0.00 41 1014.9
20260510130026 18 325 6.4 12.9 0.00 0.00 0.00 41 1015.0
20260510125524 18 297 3.2 11.3 0.00 0.00 0.00 41 1015.1
20260510125022 17 302 8.0 20.9 0.00 0.00 0.00 40 1015.2
20260510124519 18 280 4.8 11.3 0.00 0.00 0.00 41 1015.2
20260510124015 18 287 4.8 12.9 0.00 0.00 0.00 41 1015.2
20260510123534 18 297 3.2 9.7 0.00 0.00 0.00 42 1015.2
20260510123032 18 301 3.2 11.3 0.00 0.00 0.00 42 1015.3
20260510122530 18 322 8.0 20.9 0.00 0.00 0.00 42 1015.3
20260510122029 18 309 8.0 17.7 0.00 0.00 0.00 44 1015.4
20260510121526 17 293 6.4 12.9 0.00 0.00 0.00 44 1015.3
20260510121024 17 292 6.4 17.7 0.00 0.00 0.00 44 1015.5
20260510120522 17 304 3.2 9.7 0.00 0.00 0.00 43 1015.5
20260510120020 17 306 4.8 12.9 0.00 0.00 0.00 42 1015.6
20260510115519 17 305 4.8 14.5 0.00 0.00 0.00 43 1015.7
20260510115016 17 299 4.8 12.9 0.00 0.00 0.00 45 1015.7
20260510114546 17 280 6.4 14.5 0.00 0.00 0.00 45 1015.8
20260510114032 17 289 6.4 12.9 0.00 0.00 0.00 45 1015.8
20260510113530 17 291 4.8 14.5 0.00 0.00 0.00 44 1015.8
20260510113028 17 287 6.4 17.7 0.00 0.00 0.00 44 1015.8
20260510112526 17 294 6.4 14.5 0.00 0.00 0.00 44 1015.8
20260510112049 17 280 3.2 9.7 0.00 0.00 0.00 45 1001.5
20260510112024 17 280 3.2 9.7 0.00 0.00 0.00 45 1015.8
20260510111522 17 296 6.4 17.7 0.00 0.00 0.00 44 1015.9
20260510111021 17 294 6.4 14.5 0.00 0.00 0.00 44 1016.0
20260510110518 17 285 8.0 17.7 0.00 0.00 0.00 44 1016.1
20260510110017 17 310 8.0 17.7 0.00 0.00 0.00 44 1016.1
20260510105534 17 317 6.4 12.9 0.00 0.00 0.00 46 1016.0
20260510105032 17 271 6.4 12.9 0.00 0.00 0.00 47 1016.2
20260510104530 17 298 4.8 14.5 0.00 0.00 0.00 44 1016.3
20260510104029 17 297 4.8 14.5 0.00 0.00 0.00 44 1016.3
20260510103527 17 315 6.4 11.3 0.00 0.00 0.00 45 1016.5
20260510103025 17 290 6.4 17.7 0.00 0.00 0.00 46 1016.5
20260510102524 17 281 9.7 14.5 0.00 0.00 0.00 47 1016.6
20260510102021 17 281 3.2 11.3 0.00 0.00 0.00 46 1016.7
20260510101519 17 283 6.4 14.5 0.00 0.00 0.00 47 1016.8
20260510101018 16 279 6.4 29.0 0.00 0.00 0.00 49 1016.8
20260510100516 16 268 4.8 12.9 0.00 0.00 0.00 49 1016.8
20260510100034 16 284 4.8 11.3 0.00 0.00 0.00 48 1016.8
20260510095533 16 264 3.2 9.7 0.00 0.00 0.00 49 1016.8
20260510095117 16 283 8.0 17.7 0.00 0.00 0.00 50 1017.0
20260510095030 16 283 8.0 17.7 0.00 0.00 0.00 50 1017.0
20260510094529 16 293 9.7 20.9 0.00 0.00 0.00 49 1017.0
20260510094026 16 299 8.0 20.9 0.00 0.00 0.00 49 1017.0
20260510093525 16 310 3.2 9.7 0.00 0.00 0.00 49 1016.9
20260510093023 16 281 3.2 9.7 0.00 0.00 0.00 51 1017.0
20260510092521 16 281 4.8 12.9 0.00 0.00 0.00 50 1017.0
20260510092020 16 321 6.4 16.1 0.00 0.00 0.00 49 1017.0
20260510091518 16 301 6.4 17.7 0.00 0.00 0.00 51 1017.0
20260510091015 15 280 8.0 17.7 0.00 0.00 0.00 54 1017.1
20260510090534 15 227 3.2 11.3 0.00 0.00 0.00 55 1017.1
20260510090032 15 190 1.6 12.9 0.00 0.00 0.00 55 1017.2
20260510085531 15 297 6.4 16.1 0.00 0.00 0.00 56 1017.2
20260510085028 15 336 4.8 16.1 0.00 0.00 0.00 57 1017.3
20260510084527 15 298 3.2 14.5 0.00 0.00 0.00 58 1017.4
20260510084025 15 290 8.0 17.7 0.00 0.00 0.00 58 1017.5
20260510083524 15 279 9.7 17.7 0.00 0.00 0.00 59 1017.5
20260510083022 14 292 4.8 14.5 0.00 0.00 0.00 60 1017.6
20260510082519 14 293 4.8 12.9 0.00 0.00 0.00 60 1017.5
20260510082019 13 311 3.2 9.7 0.00 0.00 0.00 61 1017.7
20260510081516 13 306 3.2 11.3 0.00 0.00 0.00 61 1017.7
20260510081035 13 300 6.4 20.9 0.00 0.00 0.00 61 1017.7
20260510080533 13 280 8.0 16.1 0.00 0.00 0.00 62 1017.7
20260510080031 13 313 4.8 12.9 0.00 0.00 0.00 62 1017.8
20260510075530 13 293 4.8 11.3 0.00 0.00 0.00 60 1017.9
20260510075027 13 285 8.0 17.7 0.00 0.00 0.00 62 1017.9
20260510074526 12 289 6.4 14.5 0.00 0.00 0.00 62 1017.8
20260510074024 12 304 3.2 11.3 0.00 0.00 0.00 63 1017.8
20260510073522 12 294 6.4 14.5 0.00 0.00 0.00 64 1017.9
20260510073020 12 296 4.8 12.9 0.00 0.00 0.00 65 1017.9
20260510072518 12 312 1.6 9.7 0.00 0.00 0.00 65 1017.9
20260510072016 12 278 6.4 14.5 0.00 0.00 0.00 65 1018.1
20260510071534 11 296 3.2 9.7 0.00 0.00 0.00 67 1018.1
20260510071034 11 272 3.2 11.3 0.00 0.00 0.00 68 1018.2
20260510070531 11 306 4.8 12.9 0.00 0.00 0.00 70 1018.2
20260510070029 11 185 3.2 9.7 0.00 0.00 0.00 72 1018.2
20260510065527 10 265 3.2 12.9 0.00 0.00 0.00 72 1018.3
20260510065027 10 283 3.2 11.3 0.00 0.00 0.00 75 1018.4
20260510064524 10 252 1.6 9.7 0.00 0.00 0.00 76 1018.4
20260510064022 10 258 1.6 6.4 0.00 0.00 0.00 77 1018.6
20260510063520 10 272 4.8 6.4 0.00 0.00 0.00 77 1018.7
20260510063018 9 258 3.2 11.3 0.00 0.00 0.00 79 1018.8
20260510062517 9 256 1.6 4.8 0.00 0.00 0.00 81 1018.8
20260510062034 8 267 1.6 4.8 0.00 0.00 0.00 82 1018.7
20260510061533 8 265 1.6 6.4 0.00 0.00 0.00 82 1018.7
20260510061031 8 231 3.2 6.4 0.00 0.00 0.00 83 1018.8
20260510060529 8 224 3.2 6.4 0.00 0.00 0.00 83 1018.9
20260510060028 7 195 3.2 9.7 0.00 0.00 0.00 84 1018.8
20260510055526 7 235 3.2 6.4 0.00 0.00 0.00 84 1018.9
20260510055024 7 226 1.6 6.4 0.00 0.00 0.00 85 1019.0
20260510054522 7 205 3.2 6.4 0.00 0.00 0.00 85 1019.0
20260510054020 6 180 4.8 9.7 0.00 0.00 0.00 85 1019.0
20260510053519 6 189 3.2 6.4 0.00 0.00 0.00 86 1019.1
20260510053017 6 190 3.2 12.9 0.00 0.00 0.00 85 1019.1
20260510052535 6 175 3.2 6.4 0.00 0.00 0.00 85 1019.2
20260510052033 5 173 3.2 4.8 0.00 0.00 0.00 85 1019.1
20260510051531 5 169 1.6 6.4 0.00 0.00 0.00 86 1019.1
20260510051030 5 176 1.6 3.2 0.00 0.00 0.00 85 1019.2
20260510050528 5 173 1.6 4.8 0.00 0.00 0.00 85 1019.0
20260510050026 5 180 1.6 4.8 0.00 0.00 0.00 85 1019.1
20260510045524 5 179 1.6 4.8 0.00 0.00 0.00 85 1019.1
20260510045022 4 178 3.2 4.8 0.00 0.00 0.00 85 1019.1
20260510044520 4 176 3.2 4.8 0.00 0.00 0.00 85 1019.1
20260510044050 4 173 1.6 4.8 0.00 0.00 0.00 84 1019.2
20260510044019 4 173 1.6 4.8 0.00 0.00 0.00 84 1019.2
20260510043517 3 171 1.6 4.8 0.00 0.00 0.00 83 1019.2
20260510043035 3 0.0 0.0 0.00 0.00 0.00 82 1019.1
20260510042533 3 158 0.0 3.2 0.00 0.00 0.00 82 1019.2
20260510042032 3 168 0.0 3.2 0.00 0.00 0.00 81 1019.3
20260510041530 3 0.0 0.0 0.00 0.00 0.00 81 1019.3
20260510041028 3 0.0 0.0 0.00 0.00 0.00 80 1019.3
20260510040526 3 115 0.0 1.6 0.00 0.00 0.00 80 1019.3
20260510040024 3 0.0 0.0 0.00 0.00 0.00 80 1019.3
20260510035522 3 0.0 0.0 0.00 0.00 0.00 80 1019.3
20260510035021 3 0.0 0.0 0.00 0.00 0.00 80 1019.3
20260510034519 3 0.0 0.0 0.00 0.00 0.00 79 1019.4
20260510034048 3 0.0 0.0 0.00 0.00 0.00 79 1019.4
20260510034017 3 0.0 0.0 0.00 0.00 0.00 79 1019.4
20260510033536 3 0.0 0.0 0.00 0.00 0.00 79 1019.4
20260510033034 3 0.0 0.0 0.00 0.00 0.00 78 1019.4
20260510032532 3 0.0 0.0 0.00 0.00 0.00 78 1019.6
20260510032030 3 0.0 0.0 0.00 0.00 0.00 78 1019.5
20260510031528 3 0.0 0.0 0.00 0.00 0.00 78 1019.5
20260510031059 3 0.0 0.0 0.00 0.00 0.00 78 1019.6
20260510031026 3 0.0 0.0 0.00 0.00 0.00 78 1019.6
20260510030525 3 0.0 0.0 0.00 0.00 0.00 78 1019.6
20260510030023 3 0.0 0.0 0.00 0.00 0.00 78 1019.6
20260510025522 3 0.0 0.0 0.00 0.00 0.00 78 1019.7
20260510025019 3 0.0 0.0 0.00 0.00 0.00 78 1019.7
20260510024517 3 0.0 0.0 0.00 0.00 0.00 78 1019.7
20260510024036 3 0.0 0.0 0.00 0.00 0.00 78 1019.8
20260510023535 3 104 1.6 3.2 0.00 0.00 0.00 78 1019.8
20260510023032 3 108 1.6 4.8 0.00 0.00 0.00 77 1019.7
20260510022530 3 0.0 0.0 0.00 0.00 0.00 77 1019.8
20260510022028 3 0.0 0.0 0.00 0.00 0.00 77 1019.8
20260510021527 3 0.0 0.0 0.00 0.00 0.00 77 1019.8
20260510021024 3 0.0 0.0 0.00 0.00 0.00 77 1019.7
20260510020523 3 0.0 0.0 0.00 0.00 0.00 77 1019.8
20260510020021 3 0.0 0.0 0.00 0.00 0.00 77 1019.8
20260510015519 3 0.0 0.0 0.00 0.00 0.00 76 1019.7
20260510015017 3 0.0 0.0 0.00 0.00 0.00 76 1019.7
20260510014516 3 0.0 0.0 0.00 0.00 0.00 76 1019.7
20260510014034 3 0.0 0.0 0.00 0.00 0.00 76 1019.7
20260510013532 3 0.0 0.0 0.00 0.00 0.00 76 1019.6
20260510013043 3 0.0 0.0 0.00 0.00 0.00 76 1019.8
20260510012530 3 0.0 0.0 0.00 0.00 0.00 76 1019.8
20260510012028 3 0.0 0.0 0.00 0.00 0.00 76 1019.7
20260510011527 3 0.0 0.0 0.00 0.00 0.00 76 1019.7
20260510011104 3 0.0 0.0 0.00 0.00 0.00 76 1019.7
20260510011025 3 0.0 0.0 0.00 0.00 0.00 76 1019.7
20260510010523 3 0.0 0.0 0.00 0.00 0.00 76 1019.7
20260510010022 3 0.0 0.0 0.00 0.00 0.00 76 1019.8
20260510005520 3 0.0 0.0 0.00 0.00 0.00 76 1019.9
20260510005050 3 0.0 0.0 0.00 0.00 0.00 76 1019.9
20260510005018 3 0.0 0.0 0.00 0.00 0.00 76 1019.9
20260510004516 4 0.0 0.0 0.00 0.00 0.00 75 1019.9
20260510004034 4 0.0 0.0 0.00 0.00 0.00 75 1019.9
20260510003532 4 0.0 0.0 0.00 0.00 0.00 75 1020.0
20260510003031 4 0.0 0.0 0.00 0.00 0.00 75 1020.0
20260510002529 4 0.0 0.0 0.00 0.00 0.00 75 1020.0
20260510002027 4 0.0 0.0 0.00 0.00 0.00 75 1020.1
20260510001525 4 0.0 0.0 0.00 0.00 0.00 75 1020.2
20260510001024 5 0.0 0.0 0.00 0.00 0.00 75 1020.2
20260510000522 5 0.0 0.0 0.00 0.00 0.00 75 1020.3
20260510000020 5 0.0 0.0 0.00 0.00 0.00 75 1020.2
20260509235518 5 0.0 0.0 0.00 0.00 0.00 75 1020.2
20260509235048 5 0.0 0.0 0.00 0.00 0.00 75 1020.2
20260509235016 5 0.0 0.0 0.00 0.00 0.00 75 1020.2
20260509234534 5 0.0 0.0 0.00 0.00 0.00 75 1020.2
20260509234033 5 0.0 0.0 0.00 0.00 0.00 75 1020.2
20260509233531 5 0.0 0.0 0.00 0.00 0.00 75 1020.3
20260509233029 5 0.0 0.0 0.00 0.00 0.00 74 1020.3
20260509232527 5 0.0 0.0 0.00 0.00 0.00 74 1020.3
20260509232025 5 0.0 0.0 0.00 0.00 0.00 74 1020.3
20260509231524 5 0.0 0.0 0.00 0.00 0.00 74 1020.2
20260509231022 5 0.0 0.0 0.00 0.00 0.00 74 1020.3
20260509230520 6 0.0 0.0 0.00 0.00 0.00 74 1020.4
20260509230018 6 0.0 0.0 0.00 0.00 0.00 74 1020.4
20260509225516 6 0.0 0.0 0.00 0.00 0.00 74 1020.5
20260509225035 6 0.0 0.0 0.00 0.00 0.00 74 1020.4
20260509224533 6 0.0 0.0 0.00 0.00 0.00 74 1020.5
20260509224031 6 0.0 0.0 0.00 0.00 0.00 74 1020.5
20260509223529 6 0.0 0.0 0.00 0.00 0.00 73 1020.4
20260509223028 6 0.0 0.0 0.00 0.00 0.00 73 1020.5
20260509222526 6 0.0 0.0 0.00 0.00 0.00 73 1020.5
20260509222024 6 0.0 0.0 0.00 0.00 0.00 73 1020.5
20260509221522 6 0.0 0.0 0.00 0.00 0.00 73 1020.5
20260509221020 6 0.0 0.0 0.00 0.00 0.00 73 1020.6
20260509220518 7 0.0 0.0 0.00 0.00 0.00 73 1020.6
20260509220016 7 0.0 0.0 0.00 0.00 0.00 73 1020.5
20260509215535 7 0.0 0.0 0.00 0.00 0.00 72 1020.6
20260509215034 7 0.0 0.0 0.00 0.00 0.00 73 1020.5
20260509214531 7 0.0 0.0 0.00 0.00 0.00 73 1020.5
20260509214029 7 0.0 0.0 0.00 0.00 0.00 72 1020.6
20260509213526 7 0.0 0.0 0.00 0.00 0.00 72 1020.6
20260509213025 7 0.0 0.0 0.00 0.00 0.00 72 1020.6
20260509212524 7 0.0 0.0 0.00 0.00 0.00 72 1020.5
20260509212022 7 0.0 0.0 0.00 0.00 0.00 72 1020.6
20260509211519 7 0.0 0.0 0.00 0.00 0.00 71 1020.6
20260509211057 8 0.0 0.0 0.00 0.00 0.00 72 1020.5
20260509211017 8 0.0 0.0 0.00 0.00 0.00 72 1020.5
20260509210515 8 0.0 0.0 0.00 0.00 0.00 72 1020.5
20260509210034 8 0.0 0.0 0.00 0.00 0.00 71 1020.6
20260509205532 8 0.0 0.0 0.00 0.00 0.00 71 1020.6
20260509205030 8 0.0 0.0 0.00 0.00 0.00 71 1020.7
20260509204527 8 0.0 0.0 0.00 0.00 0.00 71 1020.7
20260509204026 8 0.0 0.0 0.00 0.00 0.00 71 1020.8
20260509203524 8 0.0 0.0 0.00 0.00 0.00 71 1020.7
20260509203023 8 0.0 0.0 0.00 0.00 0.00 70 1020.7
20260509202520 8 0.0 0.0 0.00 0.00 0.00 70 1020.7
20260509202049 8 0.0 0.0 0.00 0.00 0.00 70 1020.7
20260509202018 8 0.0 0.0 0.00 0.00 0.00 70 1020.7
20260509201516 9 0.0 0.0 0.00 0.00 0.00 70 1020.7
20260509201034 9 0.0 0.0 0.00 0.00 0.00 69 1020.8
20260509200533 9 0.0 0.0 0.00 0.00 0.00 69 1020.7
20260509200030 9 0.0 0.0 0.00 0.00 0.00 69 1020.7
20260509195529 9 0.0 0.0 0.00 0.00 0.00 69 1020.7
20260509195027 10 0.0 0.0 0.00 0.00 0.00 68 1020.6
20260509194525 10 0.0 0.0 0.00 0.00 0.00 68 1020.7
20260509194023 10 0.0 0.0 0.00 0.00 0.00 68 1020.7
20260509193521 10 0.0 0.0 0.00 0.00 0.00 68 1020.8
20260509193020 10 0.0 0.0 0.00 0.00 0.00 67 1020.7
20260509192518 10 0.0 0.0 0.00 0.00 0.00 67 1020.7
20260509192017 10 0.0 0.0 0.00 0.00 0.00 67 1020.7
20260509191534 10 0.0 0.0 0.00 0.00 0.00 66 1020.6
20260509191032 10 0.0 0.0 0.00 0.00 0.00 66 1020.7
20260509190530 10 0.0 0.0 0.00 0.00 0.00 66 1020.7
20260509190029 11 0.0 0.0 0.00 0.00 0.00 66 1020.6
20260509185526 11 0.0 0.0 0.00 0.00 0.00 65 1020.6
20260509185025 11 0.0 0.0 0.00 0.00 0.00 65 1020.5
20260509184522 11 0.0 0.0 0.00 0.00 0.00 65 1020.5
20260509184022 11 0.0 0.0 0.00 0.00 0.00 65 1020.4
20260509183519 11 0.0 0.0 0.00 0.00 0.00 64 1020.4
20260509183017 11 0.0 0.0 0.00 0.00 0.00 64 1020.4
20260509182535 11 0.0 0.0 0.00 0.00 0.00 64 1020.3
20260509182033 11 0.0 0.0 0.00 0.00 0.00 64 1020.3
20260509181531 11 0.0 0.0 0.00 0.00 0.00 63 1020.2
20260509181030 12 0.0 0.0 0.00 0.00 0.00 63 1020.1
20260509180528 12 0.0 0.0 0.00 0.00 0.00 63 1020.1
20260509180026 12 78 0.0 4.8 0.00 0.00 0.00 62 1020.1
20260509175524 12 0.0 0.0 0.00 0.00 0.00 62 1020.1
20260509175022 12 0.0 0.0 0.00 0.00 0.00 62 1020.1
20260509174520 12 118 0.0 1.6 0.00 0.00 0.00 62 1019.9
20260509174049 12 115 1.6 3.2 0.00 0.00 0.00 62 1019.9
20260509174018 12 115 1.6 3.2 0.00 0.00 0.00 62 1019.9
20260509173517 12 0.0 0.0 0.00 0.00 0.00 61 1020.0
20260509173034 12 0.0 0.0 0.00 0.00 0.00 61 1020.1
20260509172532 12 0.0 0.0 0.00 0.00 0.00 61 1020.1
20260509172031 12 52 0.0 1.6 0.00 0.00 0.00 60 1019.9
20260509171528 12 103 0.0 3.2 0.00 0.00 0.00 59 1020.0
20260509171026 12 70 1.6 1.6 0.00 0.00 0.00 60 1020.0
20260509170525 12 6 1.6 6.4 0.00 0.00 0.00 59 1019.9
20260509170023 12 356 0.0 6.4 0.00 0.00 0.00 59 1019.9
20260509165521 12 353 1.6 4.8 0.00 0.00 0.00 58 1019.8
20260509165048 12 352 0.0 4.8 0.00 0.00 0.00 59 1019.9
20260509165019 12 352 0.0 4.8 0.00 0.00 0.00 59 1019.9
20260509164518 12 1 1.6 9.7 0.00 0.00 0.00 58 1019.9
20260509164016 12 344 3.2 9.7 0.00 0.00 0.00 57 1019.9
20260509163534 12 350 4.8 12.9 0.00 0.00 0.00 57 1019.9
20260509163033 13 2 3.2 9.7 0.00 0.00 0.00 57 1019.8
20260509162531 13 351 4.8 11.3 0.00 0.00 0.00 57 1019.8
20260509162030 13 46 1.6 6.4 0.00 0.00 0.00 57 1019.7
20260509161527 13 333 1.6 6.4 0.00 0.00 0.00 57 1019.7
20260509161049 13 333 4.8 3.2 0.00 0.00 0.00 59 1019.7
20260509161025 13 333 0.0 3.2 0.00 0.00 0.00 59 1019.7
20260509160523 13 356 1.6 6.4 0.00 0.00 0.00 58 1019.8
20260509160021 13 347 3.2 9.7 0.00 0.00 0.00 57 1019.9
20260509155519 13 52 1.6 4.8 0.00 0.00 0.00 57 1020.0
20260509155049 13 17 4.8 16.1 0.00 0.00 0.00 57 1019.9
20260509155018 13 17 4.8 16.1 0.00 0.00 0.00 57 1019.9
20260509154515 13 352 3.2 11.3 0.00 0.00 0.00 58 1019.9
20260509154034 13 328 3.2 12.9 0.00 0.00 0.00 57 1019.9
20260509153533 13 24 1.6 9.7 0.00 0.00 0.00 58 1020.0
20260509153031 13 37 1.6 9.7 0.00 0.00 0.00 57 1019.9